This is the latest recevied weather packets stored in our database for station/object WD0REW. If no packets are shown the sender has not sent any weather packets the latest 10 day(s).
| Time | Temp. | Humidity | Pressure | Rain* | Wind** | Luminosity | Snow |
|---|---|---|---|---|---|---|---|
| 1777478041 | 14.44° C | 60% | 1020.5 hPa | 0 mm | - | 577 W/m² | - |
| 1777477736 | 14.44° C | 60% | 1020.6 hPa | 0 mm | - | 577 W/m² | - |
| 1777477433 | 14.44° C | 57% | 1020.4 hPa | 0 mm | - | 455 W/m² | - |
| 1777477129 | 13.89° C | 62% | 1020.6 hPa | 0 mm | - | 255 W/m² | - |
| 1777476827 | 14.44° C | 62% | 1020.8 hPa | 0 mm | - | 426 W/m² | - |
| 1777476524 | 14.44° C | 66% | 1020.4 hPa | 0 mm | - | 496 W/m² | - |
| 1777476220 | 13.89° C | 63% | 1020.6 hPa | 0 mm | - | 452 W/m² | - |
| 1777475916 | 13.89° C | 63% | 1020.6 hPa | 0 mm | - | 550 W/m² | - |
| 1777475612 | 12.78° C | 67% | 1020.6 hPa | 0 mm | - | 309 W/m² | - |
| 1777475309 | 12.78° C | 67% | 1020.6 hPa | 0 mm | - | 309 W/m² | - |
| 1777475004 | 12.78° C | 64% | 1020.6 hPa | 0 mm | - | 292 W/m² | - |
| 1777474701 | 13.33° C | 65% | 1020.6 hPa | 0 mm | - | 209 W/m² | - |
| 1777474397 | 12.78° C | 69% | 1020.6 hPa | 0 mm | - | 209 W/m² | - |
| 1777474094 | 12.78° C | 69% | 1020.5 hPa | 0 mm | - | 184 W/m² | - |
| 1777473792 | 12.78° C | 70% | 1020.5 hPa | 0 mm | - | 168 W/m² | - |
| 1777473488 | 12.22° C | 70% | 1020.5 hPa | 0 mm | - | 160 W/m² | - |
| 1777473183 | 12.22° C | 69% | 1020.3 hPa | 0 mm | - | 125 W/m² | - |
| 1777472880 | 11.67° C | 73% | 1020.3 hPa | 0 mm | - | 140 W/m² | - |
| 1777472577 | 11.67° C | 72% | 1020.4 hPa | 0 mm | - | 141 W/m² | - |
| 1777472274 | 12.22° C | 71% | 1020.3 hPa | 0 mm | - | 148 W/m² | - |
| 1777471970 | 12.22° C | 72% | 1020.3 hPa | 0 mm | - | 142 W/m² | - |
| 1777471667 | 12.22° C | 74% | 1020.4 hPa | 0 mm | - | 111 W/m² | - |
| 1777471363 | 11.67° C | 74% | 1020.3 hPa | 0 mm | - | 105 W/m² | - |
| 1777471060 | 11.11° C | 78% | 1020 hPa | 0 mm | - | 83 W/m² | - |
| 1777470756 | 10.56° C | 75% | 1020 hPa | 0 mm | - | 92 W/m² | - |
* Rain latest hour (hover to see other rain measurements)
** Current wind speed in m/s (hover to see current wind gust speed)